Location: Northam
(31.6525°S, 116.6655°E)
Time: 00:24:23
(UTC+08:00)

N. Korean satellite - Pass Details

Date: 31 July 2021
Orbit: 448 x 499 km, 97.3° (Epoch: 16 September)

Event Time Altitude Azimuth Distance (km) Brightness Sun altitude
Rises 17:56:46 0° 182° (S) 2,542 10.0 -4.7°
Reaches altitude 10° 17:58:59 10° 192° (SSW) 1,665 9.2 -5.2°
Maximum altitude 18:02:08 30° 254° (WSW) 898 8.6 -5.8°
Drops below altitude 10° 18:05:18 10° 316° (NW) 1,670 10.4 -6.5°
Sets 18:07:32 0° 327° (NNW) 2,550 11.1 -6.9°
